Stations météo

Publicité
Lahr, Allemagne (10805): Température de l'air & dewpoint: 15.04.2018 13:00:00 - 21.04.2018 13:00:00 (CEST)Lahr, Allemagne (10805): Température de l'air 5cm & Température de l'air -5cm: 15.04.2018 13:00:00 - 21.04.2018 13:00:00 (CEST)Lahr, Allemagne (10805): Température de l'air -20cm & Température de l'air -100cm: 15.04.2018 13:00:00 - 21.04.2018 13:00:00 (CEST)Lahr, Allemagne (10805): Vitesse du vent & gusts: 15.04.2018 13:00:00 - 21.04.2018 13:00:00 (CEST)Lahr, Allemagne (10805): Direction du vent: 15.04.2018 13:00:00 - 21.04.2018 13:00:00 (CEST)Lahr, Allemagne (10805): reduced air pressure: 15.04.2018 13:00:00 - 21.04.2018 13:00:00 (CEST)Lahr, Allemagne (10805): visibility: 15.04.2018 13:00:00 - 21.04.2018 13:00:00 (CEST)Lahr, Allemagne (10805): Ensoleillement: 15.04.2018 13:00:00 - 21.04.2018 13:00:00 (CEST)Lahr, Allemagne (10805): Quantités de précipitations: 15.04.2018 13:00:00 - 21.04.2018 13:00:00 (CEST)
Date & Time tt [°C] td [°C] tt 5cm [°C] tt -5cm [°C] tt -20cm [°C] tt -100cm [°C] ff [km/h] ff [knt] fx [km/h] fx [knt] dd ppp [hPa] vv [km] sd [min] rr [mm]
21.04.2018 13:00:00 24,7 11,9 29,4 27,1 16,3 11,5 5 3 12 7 NNE 1019,3 28 60 0,0
21.04.2018 12:00:00 23,2 9,8 28,5 24,1 15,7 11,5 4 2 9 5 NNW 1020,1 28 60 0,0
21.04.2018 11:00:00 21,1 11,6 25,7 20,8 15,4 11,5 6 3 9 5 WSW 1020,5 27 60 0,0
21.04.2018 10:00:00 18,6 10,6 22,6 17,5 15,3 11,5 3 2 5 3 W 1020,8 27 60 0,0
21.04.2018 09:00:00 16,1 9,8 18,3 14,7 15,4 11,5 3 1 5 3 N 1021,1 18 60 0,0
21.04.2018 08:00:00 11,6 9,0 12,0 12,6 15,7 11,4 4 2 9 5 NNE 1021,3 16 53 0,0
21.04.2018 07:00:00 9,4 7,5 7,1 12,2 16,0 11,4 4 2 10 5 SW 1020,8 21 0 0,0
21.04.2018 06:00:00 11,7 8,0 8,2 12,6 16,4 11,4 6 3 12 7 S 1020,3 31 0 0,0
21.04.2018 05:00:00 10,1 8,1 7,1 13,1 16,8 11,4 3 1 6 3 WSW 1020,5 16 0 0,0
21.04.2018 04:00:00 10,5 8,9 7,3 13,8 17,1 11,4 2 1 4 2 N 1020,6 14 0 0,0
21.04.2018 03:00:00 12,0 9,6 8,3 14,5 17,5 11,4 2 1 7 4 ESE 1020,7 20 0 0,0
21.04.2018 02:00:00 12,7 9,9 9,0 15,2 18,0 11,3 0 0 6 3 N 1020,8 21 0 0,0
21.04.2018 01:00:00 14,1 9,9 9,5 16,1 18,4 11,3 3 1 4 2 NE 1020,8 27 0 0,0
21.04.2018 00:00:00 15,0 9,9 10,4 17,0 18,8 11,3 2 1 8 5 NNE 1021,0 29 0 0,0
20.04.2018 23:00:00 16,1 10,4 11,3 18,2 19,2 11,3 4 2 8 4 NW 1021,0 26 0 0,0
20.04.2018 22:00:00 17,9 11,3 13,8 19,6 19,6 11,3 6 4 9 5 W 1020,9 29 0 0,0
20.04.2018 21:00:00 19,8 9,3 13,9 21,4 19,8 11,3 4 2 5 3 E 1020,3 27 0 0,0
20.04.2018 20:00:00 23,8 9,2 19,3 24,0 19,8 11,3 5 3 6 3 NNE 1019,9 47 54 0,0
20.04.2018 19:00:00 25,7 9,5 23,9 26,2 19,6 11,2 6 3 12 7 NE 1020,0 46 60 0,0
20.04.2018 18:00:00 25,8 9,5 25,6 27,8 19,2 11,2 9 5 18 10 NE 1020,3 33 60 0,0
20.04.2018 17:00:00 26,4 7,3 27,6 29,3 18,7 11,2 11 6 18 10 NNE 1020,7 46 60 0,0
20.04.2018 16:00:00 26,5 8,1 28,6 30,1 17,9 11,2 8 5 14 7 NNE 1021,3 50 60 0,0
20.04.2018 15:00:00 25,8 10,0 29,6 29,7 17,1 11,2 6 4 11 6 NNE 1022,0 36 60 0,0
20.04.2018 14:00:00 25,0 8,6 28,7 28,2 16,3 11,2 4 2 10 5 - 1022,5 10 60 0,0
20.04.2018 13:00:00 23,5 10,2 29,1 25,9 15,6 11,2 4 2 9 5 - 1023,2 10 60 0,0
20.04.2018 12:00:00 21,7 10,4 27,2 22,9 15,1 11,1 5 3 11 6 W 1023,6 27 60 0,0
20.04.2018 11:00:00 19,9 10,2 24,3 19,7 14,8 11,1 6 4 12 6 WSW 1023,9 20 60 0,0
20.04.2018 10:00:00 17,5 9,5 20,4 16,6 14,7 11,1 9 5 13 7 SW 1024,1 20 60 0,0
20.04.2018 09:00:00 15,2 9,1 17,5 14,0 14,8 11,1 5 3 9 5 SW 1024,3 18 60 0,0
20.04.2018 08:00:00 12,1 8,9 12,5 12,1 15,1 11,1 3 2 8 5 WSW 1024,4 15 53 0,0
20.04.2018 07:00:00 10,4 8,0 8,3 11,7 15,5 11,1 9 5 11 6 WSW 1024,2 20 0 0,0
20.04.2018 06:00:00 10,0 8,0 6,1 12,2 15,8 11,1 3 2 10 6 NNW 1024,0 16 0 0,0
20.04.2018 05:00:00 11,4 8,3 7,4 12,9 16,2 11,0 2 1 5 3 ENE 1023,9 17 0 0,0
20.04.2018 04:00:00 12,4 8,3 8,0 13,5 16,6 11,0 4 2 8 5 E 1024,1 20 0 0,0
20.04.2018 03:00:00 14,1 8,5 11,0 14,3 16,9 11,0 6 4 11 6 E 1024,2 27 0 0,0
20.04.2018 02:00:00 14,9 8,5 10,8 15,0 17,3 11,0 3 2 10 5 N 1024,3 37 0 0,0
20.04.2018 01:00:00 18,0 7,7 12,4 15,8 17,7 11,0 4 2 11 6 W 1024,1 45 0 0,0
20.04.2018 00:00:00 17,4 8,7 11,7 16,7 18,2 11,0 6 3 8 5 WNW 1024,0 44 0 0,0
19.04.2018 23:00:00 18,6 9,5 14,4 17,8 18,5 11,0 6 4 12 6 WNW 1024,0 36 0 0,0
19.04.2018 22:00:00 17,7 10,8 13,3 19,1 18,9 11,0 6 4 11 6 SW 1023,9 31 0 0,0
19.04.2018 21:00:00 21,2 10,1 14,8 21,1 19,1 10,9 6 3 8 5 E 1023,4 36 0 0,0
19.04.2018 20:00:00 22,1 12,2 19,3 23,6 19,1 10,9 6 4 13 7 NNE 1023,4 44 57 0,0
19.04.2018 19:00:00 24,3 12,2 23,1 25,8 18,8 10,9 12 6 18 10 NNE 1023,4 40 60 0,0
19.04.2018 18:00:00 25,3 11,5 25,3 27,8 18,4 10,9 14 7 18 10 NNE 1023,7 56 60 0,0
19.04.2018 17:00:00 26,3 7,1 28,1 29,0 17,7 10,9 8 4 19 11 N 1024,0 50 60 0,0
19.04.2018 16:00:00 25,6 8,2 27,8 29,5 16,9 10,9 10 5 14 8 NNE 1024,7 62 60 0,0
19.04.2018 15:00:00 25,4 5,7 30,7 29,0 16,1 10,9 7 4 11 6 NW 1025,5 49 60 0,0
19.04.2018 14:00:00 24,5 8,2 30,8 27,4 15,2 10,9 4 2 12 6 W 1026,0 28 60 0,0
19.04.2018 13:00:00 22,9 7,3 29,1 25,0 14,5 10,8 4 2 14 7 - 1026,7 10 60 0,0
19.04.2018 12:00:00 21,3 7,8 25,3 22,1 13,9 10,8 8 4 14 8 SW 1027,1 10 60 0,0
19.04.2018 11:00:00 19,1 8,7 23,6 18,8 13,6 10,8 8 4 16 9 WSW 1027,4 10 60 0,0
19.04.2018 10:00:00 16,9 7,4 22,0 15,8 13,4 10,8 5 3 9 5 WNW 1027,6 28 60 0,0
19.04.2018 09:00:00 14,7 6,4 17,6 12,8 13,5 10,8 4 2 6 4 W 1028,0 22 60 0,0
19.04.2018 08:00:00 12,8 6,5 12,5 10,8 13,8 10,8 4 2 12 7 SSW 1028,1 20 54 0,0
19.04.2018 07:00:00 11,2 4,9 7,4 10,5 14,1 10,8 7 4 21 11 N 1027,4 29 0 0,0
19.04.2018 06:00:00 10,0 4,1 8,3 11,1 14,4 10,8 11 6 20 11 E 1027,1 34 0 0,0
19.04.2018 05:00:00 15,9 4,3 10,8 11,1 14,7 10,7 11 6 15 8 SE 1026,9 42 0 0,0
19.04.2018 04:00:00 10,6 5,6 7,7 11,7 15,1 10,7 8 4 15 8 ESE 1027,3 28 0 0,0
19.04.2018 03:00:00 13,5 6,0 8,6 12,3 15,4 10,7 5 3 18 10 SSE 1027,4 31 0 0,0
19.04.2018 02:00:00 14,3 5,8 8,8 13,1 15,8 10,7 6 4 12 7 SE 1027,7 34 0 0,0
19.04.2018 01:00:00 17,4 5,6 12,2 13,8 16,2 10,7 5 3 11 6 SSE 1027,8 33 0 0,0
19.04.2018 00:00:00 13,8 7,2 10,4 14,5 16,6 10,7 6 3 9 5 NW 1027,9 43 0 0,0
18.04.2018 23:00:00 16,1 6,5 10,1 15,6 16,9 10,7 3 2 15 8 NE 1027,6 43 0 0,0
18.04.2018 22:00:00 18,8 6,1 12,0 16,9 17,2 10,7 8 5 15 8 ENE 1027,4 47 0 0,0
18.04.2018 21:00:00 20,2 5,7 13,9 18,6 17,4 10,6 8 4 20 11 ENE 1026,9 52 0 0,0
18.04.2018 20:00:00 22,2 6,0 18,9 20,8 17,4 10,6 15 8 28 15 ENE 1026,6 10 55 0,0
18.04.2018 19:00:00 24,5 5,7 23,1 23,0 17,2 10,6 19 10 33 18 ENE 1026,4 50 60 0,0
18.04.2018 18:00:00 25,7 5,2 25,3 24,6 16,8 10,6 23 13 36 20 ENE 1026,4 27 60 0,0
18.04.2018 17:00:00 26,2 4,9 27,1 25,3 16,3 10,6 19 10 34 19 ENE 1026,6 41 60 0,0
18.04.2018 16:00:00 25,7 6,0 26,7 25,7 15,7 10,6 20 11 29 16 ENE 1027,1 38 60 0,0
18.04.2018 15:00:00 25,4 6,9 27,1 25,2 15,0 10,6 19 10 33 18 ENE 1027,6 49 60 0,0
18.04.2018 14:00:00 24,1 7,7 25,8 23,7 14,4 10,6 17 9 32 17 NE 1028,1 36 60 0,0
18.04.2018 13:00:00 22,8 11,9 24,9 22,5 13,7 10,5 17 9 26 14 N 1028,7 23 60 0,0
18.04.2018 12:00:00 20,6 11,2 23,1 20,0 13,2 10,5 16 9 21 12 N 1029,4 21 60 0,0
18.04.2018 11:00:00 18,2 11,4 20,3 17,8 12,7 10,5 11 6 18 10 NNE 1030,0 10 60 0,0
18.04.2018 10:00:00 15,4 9,7 17,4 14,5 12,6 10,5 8 5 13 7 NNE 1030,1 22 60 0,0
18.04.2018 09:00:00 12,7 9,0 14,0 11,8 12,7 10,5 8 4 10 5 N 1030,2 17 60 0,0
18.04.2018 08:00:00 10,6 7,7 9,3 9,5 13,0 10,5 3 2 6 3 ENE 1030,1 21 53 0,0
18.04.2018 07:00:00 7,6 6,9 5,1 8,9 13,4 10,5 3 1 7 4 N 1029,8 10 0 0,0
18.04.2018 06:00:00 8,1 7,6 5,6 9,4 13,8 10,4 2 1 8 5 E 1029,5 9 0 0,0
18.04.2018 05:00:00 8,6 7,6 6,0 10,0 14,2 10,4 7 4 8 5 NNE 1029,5 13 0 0,0
18.04.2018 04:00:00 10,1 7,9 7,6 10,7 14,6 10,4 4 2 9 5 ENE 1029,1 15 0 0,0
18.04.2018 03:00:00 10,8 8,8 8,0 11,4 15,0 10,4 4 2 6 3 E 1028,8 16 0 0,0
18.04.2018 02:00:00 11,8 8,8 8,2 12,2 15,5 10,4 3 2 11 6 ESE 1028,5 22 0 0,0
18.04.2018 01:00:00 14,5 8,1 11,5 13,1 15,9 10,4 7 4 14 8 S 1028,0 44 0 0,0
18.04.2018 00:00:00 12,8 8,4 10,0 14,0 16,4 10,4 3 2 7 4 SSW 1027,7 34 0 0,0
17.04.2018 23:00:00 14,6 9,1 10,1 15,1 16,8 10,4 2 1 6 3 E 1027,2 31 0 0,0
17.04.2018 22:00:00 16,1 9,0 11,6 16,5 17,2 10,4 4 2 7 4 N 1026,9 35 0 0,0
17.04.2018 21:00:00 17,9 9,7 14,2 18,3 17,5 10,3 7 4 13 7 ENE 1026,1 44 0 0,0
17.04.2018 20:00:00 18,8 10,5 16,1 20,7 17,5 10,3 13 7 16 9 N 1025,1 55 49 0,0
17.04.2018 19:00:00 21,2 9,9 19,6 23,2 17,4 10,3 13 7 19 10 NNE 1024,3 55 60 0,0
17.04.2018 18:00:00 22,6 9,4 22,8 25,2 16,9 10,3 13 7 20 11 N 1024,0 10 60 0,0
17.04.2018 17:00:00 22,8 8,4 23,6 26,6 16,3 10,3 9 5 23 12 NNE 1024,0 10 60 0,0
17.04.2018 16:00:00 22,6 6,7 24,6 27,0 15,5 10,3 9 5 18 10 NNW 1024,1 66 60 0,0
17.04.2018 15:00:00 21,8 6,7 24,2 26,4 14,7 10,3 7 4 18 10 NNW 1024,5 34 60 0,0
17.04.2018 14:00:00 20,8 9,5 23,3 25,0 13,8 10,3 10 5 16 9 NNE 1024,8 33 60 0,0
17.04.2018 13:00:00 19,6 9,5 22,1 22,7 13,1 10,2 10 5 16 9 NNE 1025,2 22 60 0,0
17.04.2018 12:00:00 17,5 8,0 20,5 20,0 12,5 10,2 8 4 13 7 NE 1025,5 33 60 0,0
17.04.2018 11:00:00 15,9 8,2 18,3 16,9 12,0 10,2 8 4 12 7 NE 1025,5 10 60 0,0
17.04.2018 10:00:00 14,3 7,6 16,0 14,0 11,9 10,2 6 3 11 6 NNE 1025,3 36 60 0,0
17.04.2018 09:00:00 12,6 8,7 13,1 10,9 12,0 10,2 4 2 5 3 - 1024,8 10 60 0,0
17.04.2018 08:00:00 9,9 7,4 8,0 8,5 12,3 10,2 2 1 4 2 W 1024,4 10 49 0,0
17.04.2018 07:00:00 6,8 6,3 5,2 8,1 12,7 10,2 2 1 4 2 NE 1024,0 18 0 0,0
17.04.2018 06:00:00 7,1 6,3 4,1 8,6 13,1 10,1 5 3 6 3 NNE 1023,3 29 0 0,0
17.04.2018 05:00:00 6,8 6,1 4,4 9,2 13,5 10,1 3 2 4 2 N 1022,8 26 0 0,0
17.04.2018 04:00:00 8,4 7,3 5,4 9,9 13,9 10,1 3 2 6 3 NE 1022,6 28 0 0,0
17.04.2018 03:00:00 9,8 7,9 7,0 10,7 14,3 10,1 5 3 6 3 WSW 1022,3 32 0 0,0
17.04.2018 02:00:00 11,2 6,9 6,9 11,6 14,7 10,1 4 2 8 4 E 1021,8 46 0 0,0
17.04.2018 01:00:00 12,7 6,7 8,3 12,7 15,0 10,1 6 3 11 6 NE 1021,2 54 0 0,0
17.04.2018 00:00:00 13,8 7,5 11,7 14,0 15,3 10,1 7 4 13 7 ENE 1020,9 52 0 0,0
16.04.2018 23:00:00 15,2 7,6 12,8 14,7 15,6 10,1 4 2 14 8 NNW 1020,2 62 0 0,0
16.04.2018 22:00:00 16,1 7,8 14,1 15,3 16,0 10,0 4 2 16 9 NNE 1019,1 60 0 0,0
16.04.2018 21:00:00 16,2 7,5 14,1 16,0 16,3 10,0 14 8 22 12 N 1017,8 60 0 0,0
16.04.2018 20:00:00 16,8 8,3 14,9 17,6 16,4 10,0 9 5 18 10 NNW 1016,8 10 4 0,0
16.04.2018 19:00:00 18,9 8,3 18,4 20,4 16,3 10,0 9 5 21 11 NNW 1016,1 10 22 0,0
16.04.2018 18:00:00 19,8 7,7 20,0 22,0 16,0 10,0 6 4 19 11 NW 1015,7 70 49 0,0
16.04.2018 17:00:00 20,0 9,4 21,5 23,3 15,6 10,0 10 5 20 11 N 1015,5 70 54 0,0
16.04.2018 16:00:00 19,3 8,1 20,7 22,7 15,3 10,0 10 6 19 11 NNW 1015,4 54 46 0,0
16.04.2018 15:00:00 18,4 9,1 19,1 20,4 14,9 10,0 12 7 20 11 N 1015,4 70 0 0,0
16.04.2018 14:00:00 18,6 9,1 20,1 21,9 14,4 10,0 5 3 16 8 NW 1015,4 10 11 0,0
16.04.2018 13:00:00 18,6 9,2 20,3 22,0 13,8 9,9 6 4 11 6 NNE 1015,2 63 52 0,0
16.04.2018 12:00:00 18,4 9,3 20,6 20,5 13,2 9,9 4 2 14 8 - 1015,1 10 53 0,0
16.04.2018 11:00:00 17,2 11,7 20,5 18,7 12,8 9,9 5 3 16 9 SSW 1014,6 27 60 0,0
16.04.2018 10:00:00 15,9 11,8 17,5 15,7 12,6 9,9 8 4 12 7 SW 1014,6 10 60 0,0
16.04.2018 09:00:00 14,4 11,7 15,7 13,2 12,7 9,9 5 3 9 5 SW 1014,5 28 39 0,0
16.04.2018 08:00:00 11,9 11,4 10,8 11,3 12,9 9,9 8 4 11 6 SSE 1014,0 10 0 0,0
16.04.2018 07:00:00 11,6 11,2 10,7 11,3 13,1 9,9 4 2 8 4 SSE 1013,7 14 0 0,0
16.04.2018 06:00:00 11,6 11,3 10,4 11,5 13,3 9,9 5 3 10 5 S 1013,4 10 0 0,0
16.04.2018 05:00:00 12,4 11,7 11,0 12,4 13,5 9,9 8 4 12 7 S 1012,9 18 0 0,0
16.04.2018 04:00:00 13,0 12,3 12,2 12,8 13,7 9,8 8 4 10 6 S 1012,7 13 0 0,0
16.04.2018 03:00:00 13,2 12,5 12,2 13,1 13,9 9,8 8 5 14 8 SSW 1012,4 19 0 0,0
16.04.2018 02:00:00 13,3 12,4 12,3 13,4 14,1 9,8 2 1 9 5 S 1012,2 34 0 0,0
16.04.2018 01:00:00 13,7 12,2 12,6 13,8 14,3 9,8 3 2 13 7 E 1012,4 45 0 0,2
16.04.2018 00:00:00 13,8 12,5 13,0 14,2 14,5 9,8 8 4 13 7 S 1012,3 12 0 0,1
15.04.2018 23:00:00 14,4 12,7 13,3 14,6 14,7 9,8 4 2 10 6 S 1012,2 20 0 0,2
15.04.2018 22:00:00 15,6 11,4 13,6 15,0 15,0 9,8 3 2 16 8 E 1012,2 8 0 0,0
15.04.2018 21:00:00 16,5 10,4 15,6 15,6 15,1 9,8 11 6 27 14 NNW 1011,4 70 0 0,0
15.04.2018 20:00:00 17,9 9,7 17,0 17,1 15,2 9,8 16 9 23 12 NNW 1010,6 70 0 0,0
15.04.2018 19:00:00 18,1 10,7 17,2 18,5 15,2 9,8 12 7 18 10 NNE 1009,9 70 5 0,0
15.04.2018 18:00:00 19,2 10,3 19,2 19,8 15,1 9,8 11 6 18 10 NNE 1009,6 60 34 0,0
15.04.2018 17:00:00 19,4 9,9 20,0 20,6 14,8 9,8 11 6 18 10 NNE 1010,1 65 43 0,0
15.04.2018 16:00:00 19,0 9,3 19,5 20,6 14,5 9,8 10 6 19 10 NE 1010,7 55 0 0,0
15.04.2018 15:00:00 18,7 9,0 20,1 22,2 13,9 9,8 11 6 23 12 NNW 1011,3 70 46 0,0
15.04.2018 14:00:00 18,7 9,2 21,5 22,2 13,2 9,7 10 5 21 11 N 1012,2 37 60 0,0
15.04.2018 13:00:00 17,7 8,7 21,2 21,0 12,6 9,7 10 5 23 12 N 1012,8 41 59 0,0

tt = Température de l'air
td = dewpoint
tt 5cm = Température de l'air 5cm
tt -5cm = Température de l'air -5cm
tt -20cm = Température de l'air -20cm
tt -100cm = Température de l'air -100cm
ff = Vitesse du vent
fx = gusts
dd = Direction du vent
ppp = reduced air pressure
vv = visibility
sd = Ensoleillement
rr = Quantités de précipitations

stations d'obs. à proximité